Showing default

GLOBALSTAR M028, 25875

Orbit data source: Space-Track

GLOBALSTAR M028, 25875 is a payload satellite owned by Globalstar (US) in LEO that was launched on Sun, 25 Jul 1999 UTC via a DELTA 7420-10C launch vehicle from the Air Force Eastern Test Range (AFETR). Payload-class satellites include a variety of spacecraft equipped with specific instruments for various scientific and technological missions. These include communications satellites like Starlink; space stations such as the ISS; scientific satellites like the Hubble; Earth observation satellites from companies like Planet Labs, Umbra, and HawkEye 360; GPS; miniature CubeSats for education and research; and military/defense satellites.

Loading next visibility...
Identifier
25875, 1999-041D
Orbit
LEO
Country
Flag of USUS / GLOB
Related business
Manufacturer
SS/Loral
Mission
Non-operational Commercial Communications
Bus & Motor
LS-400, LS-400 AOCS
Mass
450 kg wet, 380 kg dry
Launch date (UTC)
1999-07-25 (27 years ago)
Launch vehicle
DELTA 7420-10C
Launch site
Air Force Eastern Test Range (AFETR)
Object type
Payload
Rocket body
Debris
Shape & HBR
Box + 2 Pan, 6.0 m
Radar Cross Section
5.587 m², Large (>1 m²)

Expand to show TLE details & history
Last TLE update: 7 hours ago

TLE from 7 hours ago
0 GLOBALSTAR M028
1 25875U 99041D   26127.80293257 -.00000077  00000-0  15486-3 0  9996
2 25875  51.9635 305.1027 0064025  57.0220 303.6775 12.50599740230793
Epoch: 2026-05-07T19:16Z
TLE epoch observation values (Epoch: 2026-05-07T19:16:13.374Z)
Latitude
0.00005°
Longitude
150.40317°
Altitude
1,435.051 km
Speed
7.157 km/s
True Right ascension
20h 20m 24s
True Declination
0° 00' 00"
Sunlit
Object was in daylight at epoch
Visualization orbit readout
Latitude
Unknown
Longitude
Unknown
Altitude
Unknown
Speed
Unknown
Apparent Right ascension
Unknown
Apparent Declination
Unknown
Sunlit
N/A
Visualization observer readout
Local Sidereal Time
10:21:05
Azimuth
Unknown
Elevation
Unknown
Doppler factor
Unknown
Orbital elements
Apogee altitude
1,512.581 km
Perigee altitude
1,412.184 km
Semi-major axis
7,840.52 km
Eccentricity
0.0064
Inclination
51.9635°
RAAN
305.1027°
Arg. of periapsis
57.022°
True anomaly
303.06425°
Mean anomaly
303.6775°
Eccentric anomaly
303.37115°
Mean motion
3.12627 °/min
Orbital period
115.15 mins
BSTAR
0.00015486
Loading maneuver chart data...
Computing Atmospheric mass density...
Loading historical data...
Loading historical data...
Loading historical data...
Loading historical data...
Loading historical data...
Loading historical data...
Loading historical data...
Other satellites on launch #41 in the year 1999 (1999-07-25 UTC)

Documentation

Showing up to 5 results
|